Regional Weather Roundup
Issued by NWS

Home | Current Version | Previous Version | Graphics & Text | Print | Product List | Glossary On
Versions: 1 2 3 4 5 6 7 8 9 10 11 12 13 14 15 16 17 18 19 20 21 22 23 24 25 26 27
000
ASUS45 KCYS 241410
RWRWY

WYOMING REGIONAL WEATHER ROUNDUP
NATIONAL WEATHER SERVICE CHEYENNE WY
800 AM MDT SAT JUN 24 2017

NOTE:  "FAIR" INDICATES FEW OR NO CLOUDS BELOW 12,000 FEET
WITH NO SIGNIFICANT WEATHER AND/OR OBSTRUCTIONS TO VISIBILITY.

WYZ001-241500-
YELLOWSTONE NATIONAL PARK

CITY           SKY/WX    TMP DP  RH WIND       PRES   REMARKS
LK YELLOWSTONE   N/A     43  32  65 SE3       30.46R
W YELLOWSTONE  NOT AVBL

$$
WYZ002>013-054>058-071-098>099-241500-
NORTHERN WYOMING

CITY           SKY/WX    TMP DP  RH WIND       PRES   REMARKS
JACKSON        SUNNY     48  36  61 CALM      30.39R
CODY           FAIR      58  35  42 CALM      30.38S
GREYBULL       FAIR      55  32  41 CALM      30.32R
WORLAND        FAIR      55  36  48 W3        30.34R
SHERIDAN       CLOUDY    53  44  71 CALM      30.33R
BUFFALO        PTSUNNY   53  36  52 N3        30.36R
GILLETTE       CLOUDY    54  38  54 CALM      30.32R
NEWCASTLE      FAIR      50  36  57 CALM      30.33R

$$
WYZ014>020-022>026-101>103-241500-
CENTRAL WYOMING

CITY           SKY/WX    TMP DP  RH WIND       PRES   REMARKS
BIG PINEY      FAIR      49  31  49 CALM      30.42R
PINEDALE       FAIR      46  32  57 CALM      30.43R
DUBOIS         FAIR      43  30  61 NW7       30.42S
LANDER         FAIR      53  34  48 NW5       30.37R
RIVERTON       FAIR      54  33  45 VRB3      30.37R
CASPER         FAIR      54  33  45 W5        30.35R
DOUGLAS        FAIR      55  36  48 NW5       30.34R

$$
WYZ021-027>030-104>119-241500-
SOUTHERN WYOMING

CITY           SKY/WX    TMP DP  RH WIND       PRES   REMARKS
EVANSTON       FAIR      51  33  50 E12       30.39R
KEMMERER         N/A     52  32  46 N6        30.41R
FORT BRIDGER   FAIR      49  32  50 CALM      30.42R
ROCK SPRINGS   FAIR      52  30  43 NE7       30.40R
DIXON          FAIR      49  34  57 CALM      30.38R
RAWLINS        FAIR      52  28  39 NE9       30.38R
SARATOGA       FAIR      50  34  53 NW8       30.39R
LARAMIE        CLOUDY    50  29  44 SE14      30.37R
CHEYENNE       CLOUDY    54  32  43 CALM      30.36R
TORRINGTON     CLOUDY    55  38  52 CALM      30.30R
PINE BLUFFS    CLOUDY    54  41  62 CALM      30.34R

$$




USA.gov is the U.S. government's official web portal to all federal, state and local government web resources and services.